Погода в Червени-Костелеце

Чехия     50°28′36″N   16°05′42″E
темп.,
°C
ветер,
м/с
пор.,
м/с
влажн.,
%
обл.,
%
осадки,
мм/ч
давл.,
гПа
погр.,
м
18 сентября, сб
сб1823:00+12з1185100 0.1 101458
02:00+11з128798 0.3 101388
05:00+11з2386100 0.2 1013144
08:00+11зсз248060 0.3 1013326
11:00+14зсз236349 0.0 10131056
14:00+14зсз3472100 0.0 1013422
17:00+13сз257997 0.1 1013667
20:00+12сз1290100 0.4 101492
19 сентября, вс
вс1923:00+10ссв479190 0.5 1016587
02:00+9св4890100 0.5 1016573
05:00+8св3788100 0.0 1016545
08:00+8ссв47811 0.0 1017535
11:00+11ссв456889 0.0 1017973
14:00+11св456898 0.0 10171005
17:00+11св566892 0.0 1016984
20:00+10св367299 0.0 1017446
20 сентября, пн
пн2023:00+9ссв2575100 0.0 1018255
02:00+8с228096 0.0 101848
05:00+9ссв226592 0.0 101850
08:00+8ссв237347 0.0 1019103
11:00+12св335438 0.0 10191280
14:00+14всв325074 0.0 10181633
17:00+13в345897 0.0 1018564
20:00+10всв257068 0.0 1020176
21 сентября, вт
вт2123:00+9ссв237298 0.0 102192
02:00+9всв1163100 0.0 102218
05:00+9ссв2266100 0.0 102343
08:00+9ссв246899 0.0 1024178
11:00+11св335451 0.0 10251024
14:00+12ссв3351100 0.0 10251226
17:00+12св235463 0.0 1025783
20:00+9св3663100 0.0 1027174
22 сентября, ср
ср2223:00+7св2269100 0.0 102826
02:00+6с1171100 0.0 102812
05:00+5с1174100 0.0 102711
08:00+7ссв2272100 0.0 102770
11:00+12св225467 0.0 1026993
14:00+14св1247100 0.0 10241495
17:00+13всв1151100 0.0 10221049
20:00+8св227171 0.0 102336